SAS4561 ENTC-ENBO

Flight info

Callsign SAS4561
Flight time 0h 34m
Altitude 32000
Route AMIMO DCT GEPTU
Aircraft B737/M-SDE2E3FGHIRWXY/LB1

Departure

Time 2026-04-29 13:15
Airport Tromsø Airport (ENTC)

Arrival

Time 2026-04-29 13:49
Airport Bodø Airport (ENBO)
Time Latitude Longitude Altitude Speed Heading
2026-04-29 12:12 69.67897 18.90866 36 ft 0 kts 283°
2026-04-29 13:06 69.67895 18.90891 36 ft 4 kts 283°
2026-04-29 13:06 69.67889 18.90966 36 ft 4 kts 283°
2026-04-29 13:07 69.67883 18.91042 35 ft 4 kts 283°
2026-04-29 13:07 69.67881 18.91063 35 ft 0 kts 283°
2026-04-29 13:10 69.67883 18.91059 36 ft 1 kts 314°
2026-04-29 13:11 69.67895 18.91099 35 ft 6 kts 62°
2026-04-29 13:11 69.67942 18.91238 35 ft 13 kts 14°
2026-04-29 13:11 69.68045 18.91310 33 ft 16 kts 14°
2026-04-29 13:11 69.68070 18.91530 30 ft 15 kts 104°
2026-04-29 13:12 69.68108 18.91732 28 ft 16 kts 13°
2026-04-29 13:12 69.68238 18.91824 27 ft 24 kts 14°
2026-04-29 13:12 69.68416 18.91946 25 ft 26 kts 12°
2026-04-29 13:12 69.68590 18.92052 22 ft 25 kts 15°
2026-04-29 13:13 69.68752 18.92165 20 ft 24 kts 13°
2026-04-29 13:13 69.68912 18.92272 22 ft 23 kts 13°
2026-04-29 13:13 69.69061 18.92373 22 ft 22 kts 13°
2026-04-29 13:13 69.69205 18.92467 22 ft 21 kts 13°
2026-04-29 13:14 69.69313 18.92534 22 ft 10 kts
2026-04-29 13:14 69.69369 18.92590 24 ft 9 kts 86°
2026-04-29 13:14 69.69324 18.92576 22 ft 9 kts 232°
2026-04-29 13:14 69.69261 18.92508 22 ft 13 kts 193°
2026-04-29 13:15 69.69059 18.92381 22 ft 64 kts 193°
2026-04-29 13:15 69.68369 18.91915 28 ft 136 kts 193°
2026-04-29 13:15 69.67319 18.91205 431 ft 165 kts 195°
2026-04-29 13:15 69.66188 18.90364 1382 ft 168 kts 194°
2026-04-29 13:16 69.65017 18.89588 2342 ft 180 kts 192°
2026-04-29 13:16 69.63762 18.88827 3263 ft 187 kts 193°
2026-04-29 13:16 69.62436 18.88024 4025 ft 204 kts 195°
2026-04-29 13:16 69.60966 18.87046 4522 ft 231 kts 196°
2026-04-29 13:17 69.59376 18.85999 5500 ft 237 kts 197°
2026-04-29 13:17 69.57751 18.84881 6498 ft 242 kts 202°
2026-04-29 13:17 69.56201 18.82970 7390 ft 248 kts 211°
2026-04-29 13:17 69.54609 18.80570 8048 ft 266 kts 213°
2026-04-29 13:18 69.52958 18.77991 8955 ft 274 kts 214°
2026-04-29 13:18 69.51279 18.75363 10006 ft 277 kts 214°
2026-04-29 13:18 69.50125 18.73562 10604 ft 280 kts 214°
2026-04-29 13:18 69.48411 18.70896 11399 ft 288 kts 214°
2026-04-29 13:19 69.46633 18.68154 12276 ft 292 kts 213°
2026-04-29 13:19 69.44837 18.65400 13273 ft 295 kts 214°
2026-04-29 13:19 69.43006 18.62597 14132 ft 303 kts 214°
2026-04-29 13:19 69.41122 18.59719 14840 ft 315 kts 214°
2026-04-29 13:20 69.39100 18.56621 15054 ft 344 kts 214°
2026-04-29 13:20 69.36933 18.53315 15500 ft 361 kts 213°
2026-04-29 13:20 69.34686 18.49922 16249 ft 369 kts 213°
2026-04-29 13:20 69.32401 18.46493 17108 ft 374 kts 213°
2026-04-29 13:21 69.30086 18.43027 17953 ft 380 kts 213°
2026-04-29 13:21 69.27732 18.39510 18710 ft 387 kts 214°
2026-04-29 13:21 69.25332 18.35931 19495 ft 390 kts 214°
2026-04-29 13:21 69.22925 18.32354 20299 ft 392 kts 214°
2026-04-29 13:22 69.20507 18.28767 21088 ft 395 kts 214°
2026-04-29 13:22 69.18064 18.25147 21848 ft 398 kts 215°
2026-04-29 13:22 69.15607 18.21513 22601 ft 401 kts 215°
2026-04-29 13:22 69.13124 18.17850 23354 ft 405 kts 215°
2026-04-29 13:23 69.10621 18.14167 24045 ft 408 kts 215°
2026-04-29 13:23 69.08096 18.10460 24663 ft 412 kts 216°
2026-04-29 13:23 69.05546 18.06726 25237 ft 416 kts 216°
2026-04-29 13:23 69.02963 18.02953 25823 ft 421 kts 216°
2026-04-29 13:24 69.00350 17.99146 26393 ft 425 kts 216°
2026-04-29 13:24 68.97715 17.95318 26941 ft 430 kts 216°
2026-04-29 13:24 68.95085 17.91511 27453 ft 434 kts 216°
2026-04-29 13:24 68.92398 17.87631 27939 ft 438 kts 217°
2026-04-29 13:25 68.89675 17.83709 28368 ft 443 kts 217°
2026-04-29 13:25 68.84139 17.75767 29368 ft 452 kts 218°
2026-04-29 13:25 68.81334 17.71764 29847 ft 455 kts 218°
2026-04-29 13:26 68.78514 17.67754 30325 ft 456 kts 218°
2026-04-29 13:26 68.75691 17.63759 30909 ft 455 kts 218°
2026-04-29 13:26 68.72884 17.59802 31510 ft 452 kts 218°
2026-04-29 13:26 68.70086 17.55866 32047 ft 452 kts 218°
2026-04-29 13:27 68.64398 17.47839 32121 ft 467 kts 218°
2026-04-29 13:27 68.58618 17.39766 32122 ft 465 kts 218°
2026-04-29 13:28 68.52848 17.31770 32119 ft 465 kts 218°
2026-04-29 13:28 68.47083 17.23812 32126 ft 465 kts 218°
2026-04-29 13:29 68.41319 17.15898 32129 ft 464 kts 218°
2026-04-29 13:29 68.35554 17.08025 32148 ft 464 kts 218°
2026-04-29 13:30 68.29774 17.00173 32098 ft 465 kts 218°
2026-04-29 13:30 68.23998 16.92377 31726 ft 468 kts 218°
2026-04-29 13:31 68.21072 16.88433 30935 ft 469 kts 218°
2026-04-29 13:31 68.18153 16.84521 29977 ft 469 kts 217°
2026-04-29 13:31 68.15226 16.80612 28932 ft 469 kts 217°
2026-04-29 13:31 68.12331 16.76769 28244 ft 460 kts 216°
2026-04-29 13:32 68.09480 16.72995 27525 ft 453 kts 216°
2026-04-29 13:32 68.06678 16.69291 26857 ft 445 kts 216°
2026-04-29 13:32 68.03950 16.65686 26141 ft 441 kts 215°
2026-04-29 13:32 68.01218 16.62074 25398 ft 436 kts 214°
2026-04-29 13:33 67.98512 16.58507 24739 ft 431 kts 214°
2026-04-29 13:33 67.95838 16.54992 24055 ft 427 kts 214°
2026-04-29 13:33 67.93189 16.51521 23324 ft 423 kts 213°
2026-04-29 13:33 67.90560 16.48091 22543 ft 418 kts 213°
2026-04-29 13:34 67.87985 16.44629 21876 ft 411 kts 214°
2026-04-29 13:34 67.85458 16.41191 21139 ft 407 kts 214°
2026-04-29 13:34 67.82947 16.37784 20468 ft 403 kts 213°
2026-04-29 13:34 67.80462 16.34413 19766 ft 399 kts 213°
2026-04-29 13:35 67.78015 16.31032 19142 ft 393 kts 216°
2026-04-29 13:35 67.75827 16.26927 18547 ft 381 kts 226°
2026-04-29 13:35 67.73981 16.22046 17810 ft 373 kts 233°
2026-04-29 13:35 67.72240 16.17019 17074 ft 369 kts 233°
2026-04-29 13:36 67.70519 16.12043 16436 ft 365 kts 233°
2026-04-29 13:36 67.68813 16.07130 15772 ft 362 kts 233°
2026-04-29 13:36 67.67113 16.02260 15129 ft 360 kts 233°
2026-04-29 13:36 67.65418 15.97432 14470 ft 359 kts 233°
2026-04-29 13:37 67.63726 15.92633 13787 ft 357 kts 233°
2026-04-29 13:37 67.62044 15.87879 13049 ft 353 kts 233°
2026-04-29 13:37 67.60381 15.83197 12374 ft 349 kts 233°
2026-04-29 13:37 67.58733 15.78570 11716 ft 345 kts 233°
2026-04-29 13:38 67.57123 15.74057 11062 ft 341 kts 233°
2026-04-29 13:38 67.55499 15.69495 10649 ft 331 kts 233°
2026-04-29 13:38 67.53962 15.65218 10504 ft 316 kts 233°
2026-04-29 13:38 67.52485 15.61122 10349 ft 304 kts 233°
2026-04-29 13:39 67.51082 15.57231 10208 ft 292 kts 233°
2026-04-29 13:39 67.49708 15.53422 9850 ft 287 kts 233°
2026-04-29 13:39 67.48353 15.49661 9457 ft 282 kts 233°
2026-04-29 13:39 67.47012 15.45944 9036 ft 280 kts 233°
2026-04-29 13:40 67.45685 15.42272 8618 ft 277 kts 233°
2026-04-29 13:40 67.44365 15.38625 8218 ft 275 kts 233°
2026-04-29 13:40 67.43053 15.34986 7785 ft 274 kts 233°
2026-04-29 13:40 67.41736 15.31406 7341 ft 273 kts 232°
2026-04-29 13:41 67.40447 15.27881 6839 ft 264 kts 233°
2026-04-29 13:41 67.39221 15.24465 6402 ft 254 kts 232°
2026-04-29 13:41 67.38017 15.21222 6066 ft 244 kts 232°
2026-04-29 13:41 67.36856 15.18069 5654 ft 237 kts 232°
2026-04-29 13:42 67.35769 15.15117 5487 ft 214 kts 232°
2026-04-29 13:42 67.34723 15.12243 5331 ft 219 kts 232°
2026-04-29 13:42 67.33683 15.09373 5276 ft 219 kts 231°
2026-04-29 13:42 67.32633 15.06521 5163 ft 216 kts 230°
2026-04-29 13:43 67.31604 15.03735 5059 ft 211 kts 231°
2026-04-29 13:43 67.30597 15.01028 4975 ft 206 kts 231°
2026-04-29 13:43 67.29599 14.98337 4860 ft 210 kts 231°
2026-04-29 13:43 67.28581 14.95552 4610 ft 214 kts 234°
2026-04-29 13:44 67.27955 14.92146 4323 ft 210 kts 258°
2026-04-29 13:44 67.27797 14.88471 4050 ft 201 kts 268°
2026-04-29 13:44 67.27766 14.84949 3788 ft 191 kts 269°
2026-04-29 13:44 67.27748 14.81620 3573 ft 179 kts 269°
2026-04-29 13:45 67.27725 14.78563 3474 ft 161 kts 269°
2026-04-29 13:45 67.27699 14.75693 3303 ft 164 kts 269°
2026-04-29 13:45 67.27670 14.72725 3010 ft 160 kts 266°
2026-04-29 13:45 67.27635 14.69972 2971 ft 149 kts 265°
2026-04-29 13:46 67.27597 14.67280 2907 ft 150 kts 265°
2026-04-29 13:46 67.27561 14.64698 2623 ft 143 kts 265°
2026-04-29 13:46 67.27523 14.62109 2157 ft 144 kts 265°
2026-04-29 13:46 67.27486 14.59561 1765 ft 140 kts 264°
2026-04-29 13:47 67.27449 14.57064 1417 ft 136 kts 265°
2026-04-29 13:47 67.27416 14.54821 1300 ft 117 kts 263°
2026-04-29 13:47 67.27386 14.52771 1119 ft 113 kts 264°
2026-04-29 13:47 67.27409 14.50714 948 ft 114 kts 262°
2026-04-29 13:48 67.27375 14.48638 838 ft 117 kts 265°
2026-04-29 13:48 67.27350 14.46510 663 ft 120 kts 265°
2026-04-29 13:48 67.27326 14.44304 479 ft 126 kts 264°
2026-04-29 13:48 67.27302 14.42025 305 ft 125 kts 265°
2026-04-29 13:49 67.27214 14.39891 117 ft 114 kts 249°
2026-04-29 13:49 67.27047 14.38035 52 ft 93 kts 257°
2026-04-29 13:49 67.26935 14.36677 40 ft 62 kts 258°
2026-04-29 13:49 67.26884 14.36012 37 ft 12 kts 284°
2026-04-29 13:50 67.26956 14.35933 37 ft 12 kts 349°
2026-04-29 13:50 67.27015 14.36006 40 ft 10 kts 70°
2026-04-29 13:50 67.27027 14.36185 42 ft 10 kts 80°
2026-04-29 13:50 67.27039 14.36358 42 ft 10 kts 78°
2026-04-29 13:51 67.27052 14.36488 43 ft 5 kts 75°
2026-04-29 13:51 67.27072 14.36556 44 ft 5 kts 27°
2026-04-29 13:51 67.27099 14.36599 45 ft 5 kts 33°
2026-04-29 13:51 67.27125 14.36646 44 ft 5 kts 34°
2026-04-29 13:52 67.27148 14.36685 44 ft 0 kts 34°
2026-04-29 13:52 67.27149 14.36687 44 ft 0 kts 34°